Lid_Strength_Index
15 15 16 16 17 17 17 18 18 18 18 19 18 18 19 19 18 19 19 18 18 18 17 17 16 16 16 16 15 15 15 15 17 16 14 13 12 12 10 8 7 7 7
15 15 17 17 18 18 18 18 18 19 19 19 19 19 19 19 19 20 20 19 19 19 18 18 18 17 17 17 16 17 16 16 17 17 15 14 14 12 11 10 8 8 8
15 16 17 18 19 19 19 19 19 19 19 19 20 20 20 20 20 20 20 20 20 19 19 18 18 17 17 17 17 17 16 16 15 16 16 14 13 12 11 9 7 7 7
16 17 19 19 19 19 19 20 20 20 20 20 20 20 21 21 21 20 20 20 20 19 18 17 17 17 17 17 16 16 16 16 15 16 16 15 14 12 12 11 9 8 7
18 19 19 19 19 19 20 21 20 21 21 21 21 21 21 21 20 20 20 20 19 19 17 17 17 17 15 15 16 16 16 15 16 16 17 16 15 14 12 11 9 6 7
19 19 19 20 20 21 21 21 22 22 22 21 22 22 21 21 19 18 18 19 19 19 19 18 17 16 16 14 14 14 12 15 16 16 16 16 15 14 13 12 11 9 10
19 19 20 21 22 21 22 22 23 23 22 22 22 21 21 21 19 18 17 18 18 18 18 18 17 16 15 16 15 13 13 13 12 13 15 14 14 13 12 13 12 12 9
19 21 21 21 22 22 23 24 24 23 23 22 22 22 22 21 19 18 18 18 18 18 18 17 17 16 16 16 15 15 15 15 13 13 13 13 12 12 12 12 11 10 10
20 21 22 22 23 24 24 24 23 23 23 23 22 22 22 22 20 18 17 18 18 18 17 16 16 16 15 14 15 16 16 15 13 12 11 11 10 10 11 12 13 11 10
21 22 22 23 24 25 25 24 23 24 23 23 22 22 22 22 19 18 17 18 18 17 16 15 15 16 15 13 15 17 18 16 15 14 12 11 11 11 10 11 12 13 11
21 23 23 24 24 24 24 24 25 25 24 24 24 22 21 20 20 18 16 17 17 16 17 17 17 16 14 13 13 16 16 14 14 14 13 12 11 12 12 12 11 11 12
23 24 25 25 25 25 26 26 26 25 26 24 23 21 20 20 19 18 16 15 14 17 18 18 17 15 13 13 14 12 11 12 13 13 13 13 12 12 12 12 11 10 9
24 25 26 26 25 26 27 26 25 25 24 23 22 22 21 20 19 17 16 14 14 17 17 16 16 15 15 15 14 13 13 12 13 14 14 13 12 11 10 11 10 9 9
25 25 26 26 27 26 25 25 24 24 23 23 22 22 21 20 19 18 17 16 16 17 17 20 17 16 16 16 16 15 16 15 15 14 13 12 11 11 11 10 11 10 10
25 25 26 26 26 26 24 24 24 23 22 23 22 22 22 22 19 16 16 17 17 17 19 21 20 20 19 19 18 17 17 17 17 16 16 15 13 11 11 10 10 11 13
25 25 26 26 26 25 25 26 24 23 22 21 20 20 19 18 16 15 15 15 16 16 22 22 21 21 21 20 20 19 18 18 18 17 17 16 15 13 11 10 10 10 11
24 25 26 26 26 26 25 25 26 25 23 22 21 20 18 17 16 15 16 16 18 19 22 21 22 22 21 20 20 20 19 19 18 18 18 18 17 16 15 11 11 10 11
25 25 26 26 26 26 26 26 25 24 24 24 22 20 18 17 17 17 17 20 23 21 21 21 22 22 22 21 21 21 19 19 20 19 19 20 19 19 18 16 11 10 11
26 26 26 26 27 26 27 27 26 26 25 25 24 21 21 18 18 19 18 23 24 23 21 22 21 21 22 21 21 21 19 20 19 19 21 21 21 20 20 18 16 14 12
26 27 27 28 29 27 27 26 26 26 25 25 24 24 25 23 24 24 23 23 23 22 22 22 22 21 21 21 21 21 20 20 19 20 21 21 21 21 20 20 19 19 13
28 29 28 28 27 27 26 26 26 26 26 26 25 25 19 26 25 25 24 24 23 22 22 22 22 22 21 21 21 21 20 20 19 20 22 22 22 22 21 21 21 21 12
28 28 28 28 27 27 27 26 26 26 26 26 25 25 22 25 26 26 24 23 23 22 22 22 22 22 21 21 21 20 20 20 19 21 22 22 22 21 21 21 21 17 10
28 27 27 28 27 28 27 27 26 26 26 26 26 26 26 27 27 26 25 23 23 23 22 22 22 22 21 21 20 18 19 19 19 21 22 22 22 22 22 22 20 12 10
27 27 27 27 28 27 27 27 27 27 26 26 26 26 27 28 27 26 25 24 24 24 23 22 23 22 22 21 19 18 18 18 19 20 21 23 23 23 24 23 22 12 12
26 26 26 27 27 26 27 26 26 27 27 26 27 26 27 26 26 26 25 25 25 24 25 23 22 22 21 21 19 18 17 17 19 20 21 22 23 24 25 25 24 21 12
25 26 26 27 26 27 26 26 27 26 27 27 27 27 27 27 26 26 26 25 26 26 24 23 22 22 22 20 19 16 16 17 18 20 21 22 23 24 25 26 26 24 22